COSMOS 2251 DEB, 47116

Orbit data source: Space-Track

COSMOS 2251 DEB, 47116 is space debris in LEO originally from a launch on Wed, 16 Jun 1993 UTC launched from the Plesetsk Missile And Space Complex (PKMTR). The debris from Iridium 33, an American commercial communications satellite, has been tracked extensively since its accidental collision with the defunct Russian satellite Cosmos 2251 in 2009. This event, occurring at high speed in low Earth orbit (LEO), generated thousands of pieces of space debris, significantly increasing the risk of further collisions. The Iridium 33 debris cloud has impacted space traffic management and orbital debris mitigation strategies, making it a subject of ongoing study in space situational awareness.

Loading next visibility...
Identifier
47116, 1993-036BYJ
Orbit
LEO
Country
Flag of CISCIS
Related business
Manufacturer
Unknown
Mission
Spacecraft
Bus & Motor
Unknown
Mass
Unknown
Launch date (UTC)
1993-06-16 (33 years ago)
Launch vehicle
Unknown
Launch site
Plesetsk Missile And Space Complex (PKMTR)
Object type
Payload
Rocket body
Debris
Shape & HBR
Unknown shape, 0.1 m
Radar Cross Section
Small (<0.1 m²)

Expand to show TLE details & history
Last TLE update: 5 days ago

TLE from 5 days ago
0 COSMOS 2251 DEB
1 47116U 93036BYJ 26233.33984052  .00026276  00000-0  15582-2 0  9996
2 47116  74.0146  84.7459 0020945 128.9873  45.4942 15.11078624632967
Epoch: 2026-08-21T08:09Z
TLE epoch observation values (Epoch: 2026-08-21T08:09:22.220Z)
Latitude
5.05748°
Longitude
171.29255°
Altitude
524.961 km
Speed
7.607 km/s
True Right ascension
17h 33m 12s
True Declination
5° 01' 35"
Sunlit
Object was in daylight at epoch
Visualization orbit readout
Latitude
Unknown
Longitude
Unknown
Altitude
Unknown
Speed
Unknown
Apparent Right ascension
Unknown
Apparent Declination
Unknown
Sunlit
N/A
Visualization observer readout
Local Sidereal Time
08:21:17
Azimuth
Unknown
Elevation
Unknown
Doppler factor
Unknown
Orbital elements
Apogee altitude
544.923 km
Perigee altitude
515.983 km
Semi-major axis
6,908.59 km
Eccentricity
0.00209
Inclination
74.0146°
RAAN
84.7459°
Arg. of periapsis
128.9873°
True anomaly
45.66569°
Mean anomaly
45.4942°
Eccentric anomaly
45.57991°
Mean motion
3.77972 °/min
Orbital period
95.25 mins
BSTAR
0.0015582
Loading maneuver chart data...
Computing Atmospheric mass density...

Documentation

Showing up to 5 results
|